Year,Month,Day,Hour,Minute,Value (Times are PST for temperature in C)
2010,08,10,00,00,11.60
2010,08,10,00,01,11.60
2010,08,10,00,02,11.60
2010,08,10,00,03,11.60
2010,08,10,00,04,11.60
2010,08,10,00,05,11.60
2010,08,10,00,06,11.60
2010,08,10,00,07,11.60
2010,08,10,00,08,11.60
2010,08,10,00,09,11.60
2010,08,10,00,10,11.60
2010,08,10,00,11,11.60
2010,08,10,00,12,11.60
2010,08,10,00,13,11.60
2010,08,10,00,14,11.60
2010,08,10,00,15,11.70
2010,08,10,00,16,11.70
2010,08,10,00,17,11.80
2010,08,10,00,18,11.80
2010,08,10,00,19,11.80
2010,08,10,00,20,11.80
2010,08,10,00,21,11.80
2010,08,10,00,22,11.80
2010,08,10,00,23,11.80
2010,08,10,00,24,11.80
2010,08,10,00,25,11.90
2010,08,10,00,26,11.80
2010,08,10,00,27,11.80
2010,08,10,00,28,11.80
2010,08,10,00,29,11.80
2010,08,10,00,30,11.80
2010,08,10,00,31,11.80
2010,08,10,00,32,11.80
2010,08,10,00,33,11.80
2010,08,10,00,34,11.80
2010,08,10,00,35,11.80
2010,08,10,00,36,11.80
2010,08,10,00,37,11.80
2010,08,10,00,38,11.70
2010,08,10,00,39,11.70
2010,08,10,00,40,11.70
2010,08,10,00,41,11.60
2010,08,10,00,42,11.60
2010,08,10,00,43,11.60
2010,08,10,00,44,11.60
2010,08,10,00,45,11.60
2010,08,10,00,46,11.60
2010,08,10,00,47,11.60
2010,08,10,00,48,11.60
2010,08,10,00,49,11.60
2010,08,10,00,50,11.60
2010,08,10,00,51,11.60
2010,08,10,00,52,11.60
2010,08,10,00,53,11.60
2010,08,10,00,54,11.60
2010,08,10,00,55,11.60
2010,08,10,00,56,11.60
2010,08,10,00,57,11.60
2010,08,10,00,58,11.60
2010,08,10,00,59,11.60
2010,08,10,01,00,11.50
2010,08,10,01,01,11.40
2010,08,10,01,02,11.40
2010,08,10,01,03,11.40
2010,08,10,01,04,11.40
2010,08,10,01,05,11.40
2010,08,10,01,06,11.40
2010,08,10,01,07,11.40
2010,08,10,01,08,11.40
2010,08,10,01,09,11.30
2010,08,10,01,10,11.30
2010,08,10,01,11,11.30
2010,08,10,01,12,11.30
2010,08,10,01,13,11.30
2010,08,10,01,14,11.20
2010,08,10,01,15,11.20
2010,08,10,01,16,11.20
2010,08,10,01,17,11.20
2010,08,10,01,18,11.20
2010,08,10,01,19,11.20
2010,08,10,01,20,11.20
2010,08,10,01,21,11.10
2010,08,10,01,22,11.10
2010,08,10,01,23,11.10
2010,08,10,01,24,11.10
2010,08,10,01,25,11.10
2010,08,10,01,26,11.20
2010,08,10,01,27,11.20
2010,08,10,01,28,11.20
2010,08,10,01,29,11.20
2010,08,10,01,30,11.30
2010,08,10,01,31,11.30
2010,08,10,01,32,11.30
2010,08,10,01,33,11.30
2010,08,10,01,34,11.30
2010,08,10,01,35,11.40
2010,08,10,01,36,11.40
2010,08,10,01,37,11.40
2010,08,10,01,38,11.30
2010,08,10,01,39,11.30
2010,08,10,01,40,11.30
2010,08,10,01,41,11.30
2010,08,10,01,42,11.30
2010,08,10,01,43,11.30
2010,08,10,01,44,11.30
2010,08,10,01,45,11.30
2010,08,10,01,46,11.30
2010,08,10,01,47,11.30
2010,08,10,01,48,11.30
2010,08,10,01,49,11.20
2010,08,10,01,50,11.20
2010,08,10,01,51,11.20
2010,08,10,01,52,11.20
2010,08,10,01,53,11.20
2010,08,10,01,54,11.20
2010,08,10,01,55,11.30
2010,08,10,01,56,11.30
2010,08,10,01,57,11.30
2010,08,10,01,58,11.30
2010,08,10,01,59,11.30
2010,08,10,02,00,11.30
2010,08,10,02,01,11.30
2010,08,10,02,02,11.30
2010,08,10,02,03,11.30
2010,08,10,02,04,11.30
2010,08,10,02,05,11.30
2010,08,10,02,06,11.30
2010,08,10,02,07,11.30
2010,08,10,02,08,11.30
2010,08,10,02,09,11.30
2010,08,10,02,10,11.30
2010,08,10,02,11,11.30
2010,08,10,02,12,11.30
2010,08,10,02,13,11.20
2010,08,10,02,14,11.20
2010,08,10,02,15,11.20
2010,08,10,02,16,11.20
2010,08,10,02,17,11.10
2010,08,10,02,18,11.10
2010,08,10,02,19,11.10
2010,08,10,02,20,11.10
2010,08,10,02,21,11.10
2010,08,10,02,22,11.10
2010,08,10,02,23,11.10
2010,08,10,02,24,11.10
2010,08,10,02,25,11.10
2010,08,10,02,26,11.10
2010,08,10,02,27,11.10
2010,08,10,02,28,11.10
2010,08,10,02,29,11.10
2010,08,10,02,30,11.10
2010,08,10,02,31,11.10
2010,08,10,02,32,11.10
2010,08,10,02,33,11.10
2010,08,10,02,34,11.10
2010,08,10,02,35,11.10
2010,08,10,02,36,11.10
2010,08,10,02,37,11.10
2010,08,10,02,38,11.10
2010,08,10,02,39,11.10
2010,08,10,02,40,11.00
2010,08,10,02,41,10.90
2010,08,10,02,42,10.90
2010,08,10,02,43,10.90
2010,08,10,02,44,10.90
2010,08,10,02,45,10.90
2010,08,10,02,46,10.90
2010,08,10,02,47,10.90
2010,08,10,02,48,10.90
2010,08,10,02,49,10.90
2010,08,10,02,50,10.90
2010,08,10,02,51,10.90
2010,08,10,02,52,10.90
2010,08,10,02,53,10.90
2010,08,10,02,54,10.90
2010,08,10,02,55,10.90
2010,08,10,02,56,10.90
2010,08,10,02,57,10.90
2010,08,10,02,58,10.90
2010,08,10,02,59,10.90
2010,08,10,03,00,10.90
2010,08,10,03,01,10.90
2010,08,10,03,02,10.90
2010,08,10,03,03,10.90
2010,08,10,03,04,11.00
2010,08,10,03,05,11.00
2010,08,10,03,06,11.10
2010,08,10,03,07,11.10
2010,08,10,03,08,11.10
2010,08,10,03,09,11.10
2010,08,10,03,10,11.10
2010,08,10,03,11,11.10
2010,08,10,03,12,11.10
2010,08,10,03,13,11.10
2010,08,10,03,14,11.10
2010,08,10,03,15,11.10
2010,08,10,03,16,11.10
2010,08,10,03,17,11.10
2010,08,10,03,18,11.10
2010,08,10,03,19,11.10
2010,08,10,03,20,11.10
2010,08,10,03,21,11.10
2010,08,10,03,22,11.10
2010,08,10,03,23,11.10
2010,08,10,03,24,11.10
2010,08,10,03,25,11.10
2010,08,10,03,26,11.10
2010,08,10,03,27,11.10
2010,08,10,03,28,11.10
2010,08,10,03,29,11.20
2010,08,10,03,30,11.20
2010,08,10,03,31,11.20
2010,08,10,03,32,11.20
2010,08,10,03,33,11.20
2010,08,10,03,34,11.20
2010,08,10,03,35,11.20
2010,08,10,03,36,11.20
2010,08,10,03,37,11.20
2010,08,10,03,38,11.20
2010,08,10,03,39,11.20
2010,08,10,03,40,11.20
2010,08,10,03,41,11.30
2010,08,10,03,42,11.30
2010,08,10,03,43,11.30
2010,08,10,03,44,11.30
2010,08,10,03,45,11.30
2010,08,10,03,46,11.30
2010,08,10,03,47,11.30
2010,08,10,03,48,11.30
2010,08,10,03,49,11.30
2010,08,10,03,50,11.30
2010,08,10,03,51,11.30
2010,08,10,03,52,11.30
2010,08,10,03,53,11.30
2010,08,10,03,54,11.30
2010,08,10,03,55,11.20
2010,08,10,03,56,11.20
2010,08,10,03,57,11.20
2010,08,10,03,58,11.20
2010,08,10,03,59,11.20
2010,08,10,04,00,11.20
2010,08,10,04,01,11.20
2010,08,10,04,02,11.20
2010,08,10,04,03,11.30
2010,08,10,04,04,11.30
2010,08,10,04,05,11.30
2010,08,10,04,06,11.30
2010,08,10,04,07,11.30
2010,08,10,04,08,11.20
2010,08,10,04,09,11.20
2010,08,10,04,10,11.20
2010,08,10,04,11,11.20
2010,08,10,04,12,11.20
2010,08,10,04,13,11.20
2010,08,10,04,14,11.20
2010,08,10,04,15,11.20
2010,08,10,04,16,11.20
2010,08,10,04,17,11.20
2010,08,10,04,18,11.20
2010,08,10,04,19,11.20
2010,08,10,04,20,11.20
2010,08,10,04,21,11.20
2010,08,10,04,22,11.20
2010,08,10,04,23,11.20
2010,08,10,04,24,11.20
2010,08,10,04,25,11.20
2010,08,10,04,26,11.20
2010,08,10,04,27,11.20
2010,08,10,04,28,11.20
2010,08,10,04,29,11.20
2010,08,10,04,30,11.20
2010,08,10,04,31,11.20
2010,08,10,04,32,11.30
2010,08,10,04,33,11.30
2010,08,10,04,34,11.30
2010,08,10,04,35,11.30
2010,08,10,04,36,11.30
2010,08,10,04,37,11.30
2010,08,10,04,38,11.30
2010,08,10,04,39,11.30
2010,08,10,04,40,11.30
2010,08,10,04,41,11.30
2010,08,10,04,42,11.30
2010,08,10,04,43,11.30
2010,08,10,04,44,11.30
2010,08,10,04,45,11.30
2010,08,10,04,46,11.30
2010,08,10,04,47,11.30
2010,08,10,04,48,11.30
2010,08,10,04,49,11.30
2010,08,10,04,50,11.30
2010,08,10,04,51,11.30
2010,08,10,04,52,11.30
2010,08,10,04,53,11.30
2010,08,10,04,54,11.30
2010,08,10,04,55,11.30
2010,08,10,04,56,11.30
2010,08,10,04,57,11.30
2010,08,10,04,58,11.30
2010,08,10,04,59,11.30
2010,08,10,05,00,11.30
2010,08,10,05,01,11.30
2010,08,10,05,02,11.30
2010,08,10,05,03,11.30
2010,08,10,05,04,11.30
2010,08,10,05,05,11.30
2010,08,10,05,06,11.40
2010,08,10,05,07,11.40
2010,08,10,05,08,11.40
2010,08,10,05,09,11.40
2010,08,10,05,10,11.40
2010,08,10,05,11,11.40
2010,08,10,05,12,11.40
2010,08,10,05,13,11.40
2010,08,10,05,14,11.40
2010,08,10,05,15,11.40
2010,08,10,05,16,11.40
2010,08,10,05,17,11.40
2010,08,10,05,18,11.40
2010,08,10,05,19,11.40
2010,08,10,05,20,11.40
2010,08,10,05,21,11.40
2010,08,10,05,22,11.40
2010,08,10,05,23,11.40
2010,08,10,05,24,11.40
2010,08,10,05,25,11.40
2010,08,10,05,26,11.40
2010,08,10,05,27,11.40
2010,08,10,05,28,11.40
2010,08,10,05,29,11.40
2010,08,10,05,30,11.40
2010,08,10,05,31,11.40
2010,08,10,05,32,11.40
2010,08,10,05,33,11.40
2010,08,10,05,34,11.40
2010,08,10,05,35,11.40
2010,08,10,05,36,11.40
2010,08,10,05,37,11.40
2010,08,10,05,38,11.40
2010,08,10,05,39,11.40
2010,08,10,05,40,11.40
2010,08,10,05,41,11.40
2010,08,10,05,42,11.40
2010,08,10,05,43,11.40
2010,08,10,05,44,11.40
2010,08,10,05,45,11.40
2010,08,10,05,46,11.40
2010,08,10,05,47,11.40
2010,08,10,05,48,11.40
2010,08,10,05,49,11.50
2010,08,10,05,50,11.60
2010,08,10,05,51,11.60
2010,08,10,05,52,11.60
2010,08,10,05,53,11.60
2010,08,10,05,54,11.60
2010,08,10,05,55,11.60
2010,08,10,05,56,11.60
2010,08,10,05,57,11.60
2010,08,10,05,58,11.60
2010,08,10,05,59,11.60
2010,08,10,06,00,11.60
2010,08,10,06,01,11.60
2010,08,10,06,02,11.60
2010,08,10,06,03,11.60
2010,08,10,06,04,11.60
2010,08,10,06,05,11.60
2010,08,10,06,06,11.60
2010,08,10,06,07,11.60
2010,08,10,06,08,11.60
2010,08,10,06,09,11.60
2010,08,10,06,10,11.60
2010,08,10,06,11,11.60
2010,08,10,06,12,11.60
2010,08,10,06,13,11.60
2010,08,10,06,14,11.60
2010,08,10,06,15,11.60
2010,08,10,06,16,11.60
2010,08,10,06,17,11.60
2010,08,10,06,18,11.70
2010,08,10,06,19,11.70
2010,08,10,06,20,11.70
2010,08,10,06,21,11.70
2010,08,10,06,22,11.70
2010,08,10,06,23,11.70
2010,08,10,06,24,11.70
2010,08,10,06,25,11.70
2010,08,10,06,26,11.70
2010,08,10,06,27,11.70
2010,08,10,06,28,11.80
2010,08,10,06,29,11.80
2010,08,10,06,30,11.80
2010,08,10,06,31,11.80
2010,08,10,06,32,11.80
2010,08,10,06,33,11.80
2010,08,10,06,34,11.80
2010,08,10,06,35,11.80
2010,08,10,06,36,11.80
2010,08,10,06,37,11.80
2010,08,10,06,38,11.80
2010,08,10,06,39,11.80
2010,08,10,06,40,11.80
2010,08,10,06,41,11.80
2010,08,10,06,42,11.90
2010,08,10,06,43,11.90
2010,08,10,06,44,11.90
2010,08,10,06,45,11.90
2010,08,10,06,46,11.90
2010,08,10,06,47,11.90
2010,08,10,06,48,11.90
2010,08,10,06,49,11.90
2010,08,10,06,50,11.90
2010,08,10,06,51,12.00
2010,08,10,06,52,12.00
2010,08,10,06,53,12.00
2010,08,10,06,54,12.00
2010,08,10,06,55,12.00
2010,08,10,06,56,12.00
2010,08,10,06,57,12.00
2010,08,10,06,58,12.00
2010,08,10,06,59,12.00
2010,08,10,07,00,12.00
2010,08,10,07,01,12.00
2010,08,10,07,02,12.00
2010,08,10,07,03,12.00
2010,08,10,07,04,11.90
2010,08,10,07,05,11.90
2010,08,10,07,06,11.90
2010,08,10,07,07,11.90
2010,08,10,07,08,11.80
2010,08,10,07,09,11.80
2010,08,10,07,10,11.80
2010,08,10,07,11,11.80
2010,08,10,07,12,11.80
2010,08,10,07,13,11.80
2010,08,10,07,14,11.80
2010,08,10,07,15,11.80
2010,08,10,07,16,11.80
2010,08,10,07,17,11.80
2010,08,10,07,18,11.80
2010,08,10,07,19,11.80
2010,08,10,07,20,11.80
2010,08,10,07,21,11.80
2010,08,10,07,22,11.80
2010,08,10,07,23,11.80
2010,08,10,07,24,11.80
2010,08,10,07,25,11.80
2010,08,10,07,26,11.80
2010,08,10,07,27,11.80
2010,08,10,07,28,11.80
2010,08,10,07,29,11.80
2010,08,10,07,30,11.80
2010,08,10,07,31,11.80
2010,08,10,07,32,11.80
2010,08,10,07,33,11.80
2010,08,10,07,34,11.80
2010,08,10,07,35,11.80
2010,08,10,07,36,11.80
2010,08,10,07,37,11.80
2010,08,10,07,38,11.80
2010,08,10,07,39,11.80
2010,08,10,07,40,11.80
2010,08,10,07,41,11.80
2010,08,10,07,42,11.80
2010,08,10,07,43,11.80
2010,08,10,07,44,11.80
2010,08,10,07,45,11.80
2010,08,10,07,46,11.80
2010,08,10,07,47,11.80
2010,08,10,07,48,11.80
2010,08,10,07,49,11.80
2010,08,10,07,50,11.80
2010,08,10,07,51,11.80
2010,08,10,07,52,11.80
2010,08,10,07,53,11.80
2010,08,10,07,54,11.80
2010,08,10,07,55,11.80
2010,08,10,07,56,11.90
2010,08,10,07,57,11.90
2010,08,10,07,58,11.90
2010,08,10,07,59,11.90
2010,08,10,08,00,12.00
2010,08,10,08,01,12.00
2010,08,10,08,02,12.00
2010,08,10,08,03,12.00
2010,08,10,08,04,12.00
2010,08,10,08,05,12.00
2010,08,10,08,06,12.00
2010,08,10,08,07,12.00
2010,08,10,08,08,12.00
2010,08,10,08,09,12.00
2010,08,10,08,10,12.00
2010,08,10,08,11,12.00
2010,08,10,08,12,12.00
2010,08,10,08,13,12.00
2010,08,10,08,14,12.00
2010,08,10,08,15,12.00
2010,08,10,08,16,12.00
2010,08,10,08,17,12.00
2010,08,10,08,18,12.00
2010,08,10,08,19,12.00
2010,08,10,08,20,12.00
2010,08,10,08,21,12.00
2010,08,10,08,22,11.90
2010,08,10,08,23,11.90
2010,08,10,08,24,11.90
2010,08,10,08,25,11.90
2010,08,10,08,26,11.90
2010,08,10,08,27,11.90
2010,08,10,08,28,11.90
2010,08,10,08,29,11.90
2010,08,10,08,30,11.80
2010,08,10,08,31,11.80
2010,08,10,08,32,11.80
2010,08,10,08,33,11.70
2010,08,10,08,34,11.70
2010,08,10,08,35,11.60
2010,08,10,08,36,11.60
2010,08,10,08,37,11.60
2010,08,10,08,38,11.70
2010,08,10,08,39,11.70
2010,08,10,08,40,11.60
2010,08,10,08,41,11.60
2010,08,10,08,42,11.60
2010,08,10,08,43,11.60
2010,08,10,08,44,11.60
2010,08,10,08,45,11.60
2010,08,10,08,46,11.60
2010,08,10,08,47,11.60
2010,08,10,08,48,11.60
2010,08,10,08,49,11.60
2010,08,10,08,50,11.60
2010,08,10,08,51,11.60
2010,08,10,08,52,11.50
2010,08,10,08,53,11.40
2010,08,10,08,54,11.40
2010,08,10,08,55,11.40
2010,08,10,08,56,11.40
2010,08,10,08,57,11.40
2010,08,10,08,58,11.40
2010,08,10,08,59,11.40
2010,08,10,09,00,11.40
2010,08,10,09,01,11.40
2010,08,10,09,02,11.40
2010,08,10,09,03,11.40
2010,08,10,09,04,11.40
2010,08,10,09,05,11.40
2010,08,10,09,06,11.50
2010,08,10,09,07,11.60
2010,08,10,09,08,11.60
2010,08,10,09,09,11.60
2010,08,10,09,10,11.60
2010,08,10,09,11,11.60
2010,08,10,09,12,11.70
2010,08,10,09,13,11.70
2010,08,10,09,14,11.70
2010,08,10,09,15,11.70
2010,08,10,09,16,11.70
2010,08,10,09,17,11.70
2010,08,10,09,18,11.70
2010,08,10,09,19,11.70
2010,08,10,09,20,11.70
2010,08,10,09,21,11.70
2010,08,10,09,22,11.70
2010,08,10,09,23,11.70
2010,08,10,09,24,11.70
2010,08,10,09,25,11.70
2010,08,10,09,26,11.70
2010,08,10,09,27,11.80
2010,08,10,09,28,11.80
2010,08,10,09,29,11.80
2010,08,10,09,30,11.80
2010,08,10,09,31,11.80
2010,08,10,09,32,11.80
2010,08,10,09,33,11.80
2010,08,10,09,34,11.80
2010,08,10,09,35,11.80
2010,08,10,09,36,11.80
2010,08,10,09,37,11.80
2010,08,10,09,38,11.80
2010,08,10,09,39,11.80
2010,08,10,09,40,11.90
2010,08,10,09,41,11.90
2010,08,10,09,42,11.90
2010,08,10,09,43,12.00
2010,08,10,09,44,12.00
2010,08,10,09,45,12.00
2010,08,10,09,46,12.10
2010,08,10,09,47,12.10
2010,08,10,09,48,12.10
2010,08,10,09,49,12.10
2010,08,10,09,50,12.10
2010,08,10,09,51,12.20
2010,08,10,09,52,12.20
2010,08,10,09,53,12.30
2010,08,10,09,54,12.30
2010,08,10,09,55,12.30
2010,08,10,09,56,12.30
2010,08,10,09,57,12.20
2010,08,10,09,58,12.20
2010,08,10,09,59,12.10
2010,08,10,10,00,12.10
2010,08,10,10,01,12.10
2010,08,10,10,02,12.10
2010,08,10,10,03,12.10
2010,08,10,10,04,12.20
2010,08,10,10,05,12.20
2010,08,10,10,06,12.20
2010,08,10,10,07,12.30
2010,08,10,10,08,12.30
2010,08,10,10,09,12.30
2010,08,10,10,10,12.30
2010,08,10,10,11,12.30
2010,08,10,10,12,12.30
2010,08,10,10,13,12.40
2010,08,10,10,14,12.50
2010,08,10,10,15,12.50
2010,08,10,10,16,12.60
2010,08,10,10,17,12.70
2010,08,10,10,18,12.70
2010,08,10,10,19,12.80
2010,08,10,10,20,12.80
2010,08,10,10,21,12.80
2010,08,10,10,22,12.70
2010,08,10,10,23,12.50
2010,08,10,10,24,12.40
2010,08,10,10,25,12.10
2010,08,10,10,26,12.00
2010,08,10,10,27,12.00
2010,08,10,10,28,12.00
2010,08,10,10,29,12.00
2010,08,10,10,30,12.00
2010,08,10,10,31,11.90
2010,08,10,10,32,11.90
2010,08,10,10,33,12.00
2010,08,10,10,34,12.00
2010,08,10,10,35,12.10
2010,08,10,10,36,12.20
2010,08,10,10,37,12.30
2010,08,10,10,38,12.30
2010,08,10,10,39,12.30
2010,08,10,10,40,12.30
2010,08,10,10,41,12.30
2010,08,10,10,42,12.30
2010,08,10,10,43,12.30
2010,08,10,10,44,12.30
2010,08,10,10,45,12.30
2010,08,10,10,46,12.30
2010,08,10,10,47,12.30
2010,08,10,10,48,12.20
2010,08,10,10,49,12.30
2010,08,10,10,50,12.30
2010,08,10,10,51,12.20
2010,08,10,10,52,12.20
2010,08,10,10,53,12.30
2010,08,10,10,54,12.30
2010,08,10,10,55,12.30
2010,08,10,10,56,12.30
2010,08,10,10,57,12.30
2010,08,10,10,58,12.20
2010,08,10,10,59,12.20
2010,08,10,11,00,12.10
2010,08,10,11,01,12.00
2010,08,10,11,02,12.00
2010,08,10,11,03,12.00
2010,08,10,11,04,12.00
2010,08,10,11,05,12.00
2010,08,10,11,06,11.90
2010,08,10,11,07,11.90
2010,08,10,11,08,12.00
2010,08,10,11,09,12.00
2010,08,10,11,10,12.00
2010,08,10,11,11,12.10
2010,08,10,11,12,12.10
2010,08,10,11,13,12.20
2010,08,10,11,14,12.30
2010,08,10,11,15,12.30
2010,08,10,11,16,12.30
2010,08,10,11,17,12.30
2010,08,10,11,18,12.30
2010,08,10,11,19,12.30
2010,08,10,11,20,12.40
2010,08,10,11,21,12.40
2010,08,10,11,22,12.50
2010,08,10,11,23,12.60
2010,08,10,11,24,12.60
2010,08,10,11,25,12.70
2010,08,10,11,26,12.90
2010,08,10,11,27,13.00
2010,08,10,11,28,13.20
2010,08,10,11,29,13.30
2010,08,10,11,30,13.40
2010,08,10,11,31,13.40
2010,08,10,11,32,13.30
2010,08,10,11,33,13.30
2010,08,10,11,34,13.20
2010,08,10,11,35,13.20
2010,08,10,11,36,13.30
2010,08,10,11,37,13.50
2010,08,10,11,38,13.70
2010,08,10,11,39,13.70
2010,08,10,11,40,13.80
2010,08,10,11,41,13.80
2010,08,10,11,42,13.80
2010,08,10,11,43,13.90
2010,08,10,11,44,13.90
2010,08,10,11,45,13.90
2010,08,10,11,46,14.00
2010,08,10,11,47,14.00
2010,08,10,11,48,13.90
2010,08,10,11,49,13.90
2010,08,10,11,50,13.80
2010,08,10,11,51,13.70
2010,08,10,11,52,13.70
2010,08,10,11,53,13.70
2010,08,10,11,54,13.70
2010,08,10,11,55,13.70
2010,08,10,11,56,13.60
2010,08,10,11,57,13.60
2010,08,10,11,58,13.60
2010,08,10,11,59,13.60
2010,08,10,12,00,13.70
2010,08,10,12,01,13.90
2010,08,10,12,02,14.00
2010,08,10,12,03,14.10
2010,08,10,12,04,14.10
2010,08,10,12,05,14.20
2010,08,10,12,06,14.20
2010,08,10,12,07,14.20
2010,08,10,12,08,14.20
2010,08,10,12,09,14.10
2010,08,10,12,10,14.00
2010,08,10,12,11,14.00
2010,08,10,12,12,14.10
2010,08,10,12,13,14.20
2010,08,10,12,14,14.00
2010,08,10,12,15,13.90
2010,08,10,12,16,13.90
2010,08,10,12,17,13.90
2010,08,10,12,18,13.80
2010,08,10,12,19,13.80
2010,08,10,12,20,13.70
2010,08,10,12,21,13.70
2010,08,10,12,22,13.70
2010,08,10,12,23,13.70
2010,08,10,12,24,13.70
2010,08,10,12,25,13.70
2010,08,10,12,26,13.70
2010,08,10,12,27,13.80
2010,08,10,12,28,13.70
2010,08,10,12,29,13.70
2010,08,10,12,30,13.60
2010,08,10,12,31,13.50
2010,08,10,12,32,13.50
2010,08,10,12,33,13.50
2010,08,10,12,34,13.60
2010,08,10,12,35,13.60
2010,08,10,12,36,13.70
2010,08,10,12,37,13.70
2010,08,10,12,38,13.70
2010,08,10,12,39,13.70
2010,08,10,12,40,13.70
2010,08,10,12,41,13.80
2010,08,10,12,42,13.80
2010,08,10,12,43,13.80
2010,08,10,12,44,13.80
2010,08,10,12,45,13.80
2010,08,10,12,46,13.80
2010,08,10,12,47,13.70
2010,08,10,12,48,13.60
2010,08,10,12,49,13.60
2010,08,10,12,50,13.60
2010,08,10,12,51,13.60
2010,08,10,12,52,13.60
2010,08,10,12,53,13.60
2010,08,10,12,54,13.60
2010,08,10,12,55,13.70
2010,08,10,12,56,13.70
2010,08,10,12,57,13.70
2010,08,10,12,58,13.80
2010,08,10,12,59,13.90
2010,08,10,13,00,14.00
2010,08,10,13,01,14.10
2010,08,10,13,02,14.20
2010,08,10,13,03,14.20
2010,08,10,13,04,14.30
2010,08,10,13,05,14.40
2010,08,10,13,06,14.40
2010,08,10,13,07,14.40
2010,08,10,13,08,14.30
2010,08,10,13,09,14.20
2010,08,10,13,10,14.10
2010,08,10,13,11,14.10
2010,08,10,13,12,14.10
2010,08,10,13,13,14.10
2010,08,10,13,14,14.20
2010,08,10,13,15,14.30
2010,08,10,13,16,14.40
2010,08,10,13,17,14.50
2010,08,10,13,18,14.60
2010,08,10,13,19,14.70
2010,08,10,13,20,14.80
2010,08,10,13,21,14.90
2010,08,10,13,22,14.90
2010,08,10,13,23,14.80
2010,08,10,13,24,14.80
2010,08,10,13,25,14.80
2010,08,10,13,26,14.80
2010,08,10,13,27,14.90
2010,08,10,13,28,14.90
2010,08,10,13,29,15.00
2010,08,10,13,30,15.00
2010,08,10,13,31,15.10
2010,08,10,13,32,15.30
2010,08,10,13,33,15.40
2010,08,10,13,34,15.40
2010,08,10,13,35,15.50
2010,08,10,13,36,15.60
2010,08,10,13,37,15.60
2010,08,10,13,38,15.70
2010,08,10,13,39,15.80
2010,08,10,13,40,15.80
2010,08,10,13,41,15.90
2010,08,10,13,42,16.00
2010,08,10,13,43,16.00
2010,08,10,13,44,15.90
2010,08,10,13,45,15.80
2010,08,10,13,46,15.80
2010,08,10,13,47,15.80
2010,08,10,13,48,15.80
2010,08,10,13,49,15.80
2010,08,10,13,50,15.80
2010,08,10,13,51,15.80
2010,08,10,13,52,16.00
2010,08,10,13,53,16.20
2010,08,10,13,54,16.30
2010,08,10,13,55,16.40
2010,08,10,13,56,16.60
2010,08,10,13,57,16.70
2010,08,10,13,58,16.70
2010,08,10,13,59,16.80
2010,08,10,14,00,16.80
2010,08,10,14,01,16.80
2010,08,10,14,02,16.80
2010,08,10,14,03,16.70
2010,08,10,14,04,16.50
2010,08,10,14,05,16.40
2010,08,10,14,06,16.30
2010,08,10,14,07,16.30
2010,08,10,14,08,16.20
2010,08,10,14,09,16.30
2010,08,10,14,10,16.40
2010,08,10,14,11,16.50
2010,08,10,14,12,16.60
2010,08,10,14,13,16.60
2010,08,10,14,14,16.60
2010,08,10,14,15,16.40
2010,08,10,14,16,16.50
2010,08,10,14,17,16.60
2010,08,10,14,18,16.80
2010,08,10,14,19,16.90
2010,08,10,14,20,16.90
2010,08,10,14,21,17.00
2010,08,10,14,22,17.20
2010,08,10,14,23,17.30
2010,08,10,14,24,17.30
2010,08,10,14,25,17.00
2010,08,10,14,26,16.70
2010,08,10,14,27,16.40
2010,08,10,14,28,16.10
2010,08,10,14,29,16.00
2010,08,10,14,30,16.00
2010,08,10,14,31,16.00
2010,08,10,14,32,16.10
2010,08,10,14,33,15.90
2010,08,10,14,34,15.90
2010,08,10,14,35,15.80
2010,08,10,14,36,15.80
2010,08,10,14,37,15.70
2010,08,10,14,38,15.70
2010,08,10,14,39,15.60
2010,08,10,14,40,15.50
2010,08,10,14,41,15.50
2010,08,10,14,42,15.60
2010,08,10,14,43,15.70
2010,08,10,14,44,15.80
2010,08,10,14,45,15.80
2010,08,10,14,46,15.80
2010,08,10,14,47,15.80
2010,08,10,14,48,15.80
2010,08,10,14,49,15.90
2010,08,10,14,50,16.00
2010,08,10,14,51,16.10
2010,08,10,14,52,16.00
2010,08,10,14,53,15.90
2010,08,10,14,54,15.90
2010,08,10,14,55,16.00
2010,08,10,14,56,16.10
2010,08,10,14,57,16.30
2010,08,10,14,58,16.40
2010,08,10,14,59,16.50
2010,08,10,15,00,16.40
2010,08,10,15,01,16.20
2010,08,10,15,02,16.00
2010,08,10,15,03,15.70
2010,08,10,15,04,15.40
2010,08,10,15,05,15.10
2010,08,10,15,06,14.90
2010,08,10,15,07,14.70
2010,08,10,15,08,14.60
2010,08,10,15,09,14.60
2010,08,10,15,10,14.70
2010,08,10,15,11,14.80
2010,08,10,15,12,14.80
2010,08,10,15,13,14.80
2010,08,10,15,14,14.80
2010,08,10,15,15,15.00
2010,08,10,15,16,15.10
2010,08,10,15,17,15.10
2010,08,10,15,18,15.10
2010,08,10,15,19,15.10
2010,08,10,15,20,15.20
2010,08,10,15,21,15.30
2010,08,10,15,22,15.40
2010,08,10,15,23,15.50
2010,08,10,15,24,15.60
2010,08,10,15,25,15.70
2010,08,10,15,26,15.70
2010,08,10,15,27,15.60
2010,08,10,15,28,15.60
2010,08,10,15,29,15.60
2010,08,10,15,30,15.70
2010,08,10,15,31,15.70
2010,08,10,15,32,15.70
2010,08,10,15,33,15.80
2010,08,10,15,34,15.80
2010,08,10,15,35,15.80
2010,08,10,15,36,15.80
2010,08,10,15,37,15.80
2010,08,10,15,38,15.70
2010,08,10,15,39,15.70
2010,08,10,15,40,15.60
2010,08,10,15,41,15.60
2010,08,10,15,42,15.50
2010,08,10,15,43,15.50
2010,08,10,15,44,15.40
2010,08,10,15,45,15.40
2010,08,10,15,46,15.30
2010,08,10,15,47,15.30
2010,08,10,15,48,15.30
2010,08,10,15,49,15.30
2010,08,10,15,50,15.30
2010,08,10,15,51,15.40
2010,08,10,15,52,15.40
2010,08,10,15,53,15.40
2010,08,10,15,54,15.30
2010,08,10,15,55,15.30
2010,08,10,15,56,15.30
2010,08,10,15,57,15.20
2010,08,10,15,58,15.10
2010,08,10,15,59,14.90
2010,08,10,16,00,14.80
2010,08,10,16,01,14.80
2010,08,10,16,02,14.70
2010,08,10,16,03,14.80
2010,08,10,16,04,14.80
2010,08,10,16,05,14.80
2010,08,10,16,06,14.70
2010,08,10,16,07,14.60
2010,08,10,16,08,14.50
2010,08,10,16,09,14.30
2010,08,10,16,10,14.20
2010,08,10,16,11,14.10
2010,08,10,16,12,14.10
2010,08,10,16,13,14.10
2010,08,10,16,14,14.20
2010,08,10,16,15,14.30
2010,08,10,16,16,14.40
2010,08,10,16,17,14.40
2010,08,10,16,18,14.40
2010,08,10,16,19,14.40
2010,08,10,16,20,14.50
2010,08,10,16,21,14.50
2010,08,10,16,22,14.50
2010,08,10,16,23,14.50
2010,08,10,16,24,14.40
2010,08,10,16,25,14.30
2010,08,10,16,26,14.20
2010,08,10,16,27,14.20
2010,08,10,16,28,14.20
2010,08,10,16,29,14.20
2010,08,10,16,30,14.20
2010,08,10,16,31,14.30
2010,08,10,16,32,14.40
2010,08,10,16,33,14.50
2010,08,10,16,34,14.50
2010,08,10,16,35,14.60
2010,08,10,16,36,14.60
2010,08,10,16,37,14.60
2010,08,10,16,38,14.60
2010,08,10,16,39,14.60
2010,08,10,16,40,14.60
2010,08,10,16,41,14.60
2010,08,10,16,42,14.70
2010,08,10,16,43,14.80
2010,08,10,16,44,14.70
2010,08,10,16,45,14.70
2010,08,10,16,46,14.70
2010,08,10,16,47,14.60
2010,08,10,16,48,14.70
2010,08,10,16,49,14.80
2010,08,10,16,50,14.80
2010,08,10,16,51,14.70
2010,08,10,16,52,14.70
2010,08,10,16,53,14.70
2010,08,10,16,54,14.80
2010,08,10,16,55,14.80
2010,08,10,16,56,14.80
2010,08,10,16,57,14.80
2010,08,10,16,58,14.80
2010,08,10,16,59,14.70
2010,08,10,17,00,14.60
2010,08,10,17,01,14.60
2010,08,10,17,02,14.60
2010,08,10,17,03,14.60
2010,08,10,17,04,14.70
2010,08,10,17,05,14.80
2010,08,10,17,06,14.80
2010,08,10,17,07,14.80
2010,08,10,17,08,14.70
2010,08,10,17,09,14.80
2010,08,10,17,10,14.70
2010,08,10,17,11,14.60
2010,08,10,17,12,14.60
2010,08,10,17,13,14.60
2010,08,10,17,14,14.60
2010,08,10,17,15,14.70
2010,08,10,17,16,14.70
2010,08,10,17,17,14.70
2010,08,10,17,18,14.60
2010,08,10,17,19,14.60